#timestamp,LO_Frequency,Hit,StdDev 
1624719615.6,286047000.0,P
1624719635.5,286047000.5,N
1624719655.3,286046999.7,N
1624719675.2,286047000.2,N
1624719695.9,286047002.2,N
1624719715.7,286047002.3,N
1624719735.6,286047001.9,N
1624719755.4,286047001.7,N
1624719775.3,286047002.0,N
1624719795.1,286047001.6,N
1624719796.0,286047001.6,N
1624719815.8,286047001.9,N
1624719835.7,286047002.8,N
1624719855.5,286047000.8,N
1624719875.3,286047000.8,N
1624719895.2,286047000.0,N
1624719915.0,286046998.6,N
1624719915.9,286046998.6,N
1624719935.8,286046999.2,N
1624719955.6,286046996.8,N
1624719975.4,286046999.6,N
1624719995.3,286046998.5,N
1624720015.1,286047000.8,N
1624720016.0,286047000.8,N
1624720035.8,286047000.8,N
1624720055.7,286047001.1,N
1624720075.5,286046998.7,N
1624720095.3,286046998.7,N
1624720115.2,286046998.7,N
1624720135.0,286046999.5,N
1624720135.9,286046999.5,N
1624720155.8,286046996.5,N
1624720175.6,286046997.7,N
1624720195.4,286046996.4,N
1624720215.3,286046993.4,Y
1624720235.1,286046996.3,P
1624720255.9,286046995.9,N
1624720275.7,286046997.9,N
1624720295.5,286046996.7,N
1624720315.4,286046996.5,N
1624720335.2,286046996.9,N
1624720355.0,286046996.9,N
1624720355.9,286046996.9,N
1624720375.8,286046996.6,N
1624720395.6,286046999.2,N
1624720415.5,286046997.5,N
1624720435.3,286046997.2,N
1624720455.1,286046997.1,N
1624720475.9,286046996.9,N
1624720495.7,286046998.9,N
1624720515.5,286046999.1,N
1624720535.4,286046999.5,N
1624720555.2,286046999.6,N
1624720575.0,286046999.1,N
1624720576.0,286046999.1,N
1624720595.8,286046996.5,N
1624720615.6,286046997.5,N
1624720635.5,286046995.3,Y
1624720655.3,286046996.6,P
1624720675.1,286046999.6,N
1624720695.9,286046997.2,N
1624720715.7,286046997.9,N
1624720735.6,286046997.2,N
1624720755.4,286046997.8,N
1624720775.2,286046997.2,Y
1624720795.1,286046998.8,P
1624720796.0,286046998.8,N
1624720815.8,286046998.4,P
1624720835.6,286046998.3,Y
1624720855.5,286047000.0,P
1624720875.3,286047002.7,P
1624720895.2,286047002.4,N
1624720915.9,286047002.4,N
1624720935.7,286047002.8,N
1624720955.6,286047002.8,N
1624720975.4,286047002.3,N
1624720995.2,286047000.3,N
1624721015.1,286047002.6,N
1624721016.0,286047002.6,N
1624721035.8,286046999.9,N
1624721055.7,286046999.9,N
1624721075.5,286046999.7,N
1624721095.3,286047000.6,N
1624721115.2,286047002.4,N
1624721135.0,286047000.2,N
1624721135.9,286047000.2,N
1624721155.7,286046999.8,N
1624721175.6,286047000.3,N
1624721195.4,286046999.9,N
1624721215.3,286047000.1,N
1624721235.1,286047000.1,N
1624721236.0,286047000.1,N
1624721255.8,286046999.9,N
1624721275.7,286046999.9,N
1624721295.5,286046999.7,N
1624721315.3,286046999.8,N
1624721335.2,286047002.7,N
1624721355.0,286047000.0,N
1624721355.9,286047000.0,N
1624721375.8,286047002.6,N
1624721395.6,286047001.7,N
1624721415.4,286047001.3,N
1624721435.3,286047001.6,N
1624721455.1,286047002.1,N
1624721475.8,286047002.6,N
1624721495.7,286047002.8,N
1624721515.5,286047001.7,N
1624721535.4,286047004.3,Y
1624721555.2,286047001.7,P
1624721575.0,286047002.0,P
1624721575.9,286047002.0,P
1624721595.8,286047001.9,Y
1624721615.6,286047000.6,P
1624721635.4,286047000.5,N
1624721655.3,286047000.4,N
1624721675.1,286047000.6,N
1624721695.9,286047002.7,Y
1624721715.7,286047002.5,P
1624721735.5,286047000.4,N
1624721755.4,286047000.8,N
1624721775.2,286047000.3,N
1624721795.1,286046998.3,N
1624721796.0,286046998.3,N
1624721815.8,286046996.9,N
1624721835.6,286046999.6,N
1624721855.5,286046996.9,N
1624721875.3,286046999.3,N
1624721895.1,286046996.5,N
1624721915.9,286046999.3,N
1624721935.7,286046999.3,N
1624721955.6,286046999.4,N
1624721975.4,286046999.5,N
1624721995.2,286046996.5,N
1624722015.1,286046998.8,N
1624722016.0,286046998.8,N
1624722035.8,286046999.1,N
1624722055.6,286046998.7,N
1624722075.5,286047000.7,N
1624722095.3,286046998.5,N
1624722115.2,286046998.2,N
1624722135.9,286046999.8,N
1624722155.7,286047000.4,N
1624722175.6,286047002.3,N
1624722195.4,286047000.2,N
1624722215.2,286047002.3,N
1624722235.1,286047001.7,N
1624722236.0,286047001.7,N
1624722255.8,286047002.1,N
1624722275.7,286047002.4,N
1624722295.5,286047002.7,N
1624722315.3,286047002.6,N
1624722335.2,286047002.2,N
1624722355.0,286047004.4,N
1624722355.9,286047004.4,N
1624722375.7,286047003.8,N
1624722395.6,286047003.2,N
1624722415.4,286047006.0,N
1624722435.3,286047005.2,N
1624722455.1,286047004.5,N
1624722475.8,286047005.4,N
1624722495.7,286047003.8,N
1624722515.5,286047003.9,N
1624722535.4,286047003.4,N
1624722555.2,286047005.8,N
1624722575.0,286047005.0,N
1624722575.9,286047005.0,N
1624722595.8,286047004.8,N
1624722615.6,286047005.2,N
1624722635.4,286047007.5,Y
1624722655.3,286047003.9,P
1624722675.1,286047001.7,P
1624722695.9,286047002.1,N
1624722715.7,286047002.0,N
1624722735.5,286047001.4,N
1624722755.4,286047004.2,Y
1624722775.2,286047000.7,P
1624722795.0,286046998.2,N
1624722795.9,286046998.2,N
1624722815.8,286047000.7,N
1624722835.6,286046998.3,N
1624722855.5,286046998.5,N
1624722875.3,286047000.5,N
1624722895.1,286047001.0,N
1624722915.9,286046999.9,N
1624722935.7,286047000.5,N
1624722955.5,286047000.3,N
1624722975.4,286046998.2,N
1624722995.2,286047000.8,N
1624723015.1,286047001.2,N
1624723016.0,286047001.2,N
1624723035.8,286047001.0,N
1624723055.6,286047001.0,N
1624723075.5,286046998.8,N
1624723095.3,286046998.5,N
1624723115.2,286047001.1,N
1624723135.9,286046998.1,N
1624723155.7,286047001.2,N
1624723175.6,286047001.1,N
1624723195.4,286047000.1,N
